• In Italy
  • List of Countries
  • For 7 days
  • Water Temperature
  • Satellite Maps
  • Weather Map
  • Weather Widgets
  • user-avatar
    Login

    Hourly Weather Belize

    Today, 14 December, Thursday

    Time Temperature Precipitation Wind Pressure Humidity
    00:00 +18°C° 0 mm 1 mps 763 mmHg 94%
    01:00 +16°C° 0 mm 1 mps 762 mmHg 94%
    02:00 +16°C° 0 mm 1 mps 762 mmHg 95%
    03:00 +16°C° 0 mm 2 mps 761 mmHg 96%
    04:00 +15°C° 0 mm 2 mps 761 mmHg 96%
    05:00 +15°C° 0 mm 2 mps 761 mmHg 95%
    06:00 +15°C° 0 mm 2 mps 761 mmHg 95%
    07:00 +18°C° 0 mm 2 mps 762 mmHg 84%
    08:00 +22°C° 0 mm 1 mps 762 mmHg 73%
    09:00 +24°C° 0 mm 1 mps 762 mmHg 62%
    10:00 +26°C° 0 mm 2 mps 762 mmHg 58%
    11:00 +27°C° 0 mm 2 mps 762 mmHg 55%
    12:00 +28°C° 0 mm 2 mps 761 mmHg 51%
    13:00 +28°C° 0 mm 3 mps 761 mmHg 52%
    14:00 +28°C° 0 mm 3 mps 760 mmHg 52%
    15:00 +28°C° 0 mm 3 mps 760 mmHg 52%
    16:00 +26°C° 0 mm 3 mps 760 mmHg 61%
    17:00 +24°C° 0 mm 3 mps 760 mmHg 69%
    18:00 +21°C° 0 mm 3 mps 760 mmHg 77%
    19:00 +21°C° 0 mm 3 mps 760 mmHg 79%
    20:00 +21°C° 0 mm 3 mps 761 mmHg 81%
    21:00 +21°C° 0 mm 4 mps 761 mmHg 83%
    22:00 +22°C° 0.1 mm 4 mps 761 mmHg 85%
    23:00 +22°C° 0.1 mm 4 mps 761 mmHg 88%

    Tomorrow, 15 December, Friday

    Time Temperature Precipitation Wind Pressure Humidity
    00:00 +22°C° 0.1 mm 4 mps 761 mmHg 90%
    01:00 +22°C° 0.1 mm 4 mps 760 mmHg 92%
    02:00 +22°C° 0.1 mm 4 mps 760 mmHg 93%
    03:00 +22°C° 0.1 mm 4 mps 760 mmHg 95%
    04:00 +22°C° 0.1 mm 4 mps 760 mmHg 95%
    05:00 +22°C° 0.1 mm 4 mps 760 mmHg 96%
    06:00 +22°C° 0.1 mm 4 mps 760 mmHg 97%
    07:00 +25°C° 0.1 mm 4 mps 761 mmHg 91%
    08:00 +26°C° 0.1 mm 4 mps 761 mmHg 86%
    09:00 +28°C° 0.1 mm 4 mps 761 mmHg 80%
    10:00 +29°C° 0 mm 4 mps 761 mmHg 75%
    11:00 +30°C° 0 mm 4 mps 761 mmHg 69%
    12:00 +31°C° 0 mm 3 mps 761 mmHg 64%
    13:00 +31°C° 0 mm 3 mps 760 mmHg 63%
    14:00 +31°C° 0 mm 3 mps 760 mmHg 62%
    15:00 +31°C° 0 mm 3 mps 759 mmHg 62%
    16:00 +29°C° 0 mm 3 mps 759 mmHg 69%
    17:00 +27°C° 0 mm 3 mps 760 mmHg 77%
    18:00 +26°C° 0 mm 3 mps 760 mmHg 85%
    19:00 +26°C° 0 mm 3 mps 760 mmHg 86%
    20:00 +26°C° 0 mm 3 mps 761 mmHg 87%
    21:00 +26°C° 0 mm 4 mps 761 mmHg 88%
    22:00 +25°C° 0.1 mm 3 mps 761 mmHg 91%
    23:00 +25°C° 0.1 mm 3 mps 761 mmHg 94%

    Day after tomorrow, 16 December, Saturday

    Time Temperature Precipitation Wind Pressure Humidity
    00:00 +24°C° 0.1 mm 3 mps 761 mmHg 97%
    01:00 +24°C° 0.2 mm 2 mps 761 mmHg 98%
    02:00 +24°C° 0.2 mm 2 mps 761 mmHg 99%
    03:00 +24°C° 0.2 mm 2 mps 760 mmHg 99%
    04:00 +24°C° 0.2 mm 2 mps 760 mmHg 99%
    05:00 +24°C° 0.2 mm 2 mps 760 mmHg 99%
    06:00 +24°C° 0.2 mm 2 mps 761 mmHg 99%
    07:00 +25°C° 0.8 mm 2 mps 761 mmHg 97%
    08:00 +26°C° 0.8 mm 2 mps 762 mmHg 95%
    09:00 +26°C° 0.8 mm 2 mps 762 mmHg 93%
    10:00 +27°C° 1.5 mm 2 mps 762 mmHg 90%
    11:00 +28°C° 1.5 mm 3 mps 762 mmHg 88%
    12:00 +29°C° 1.5 mm 3 mps 761 mmHg 86%
    13:00 +29°C° 1.2 mm 4 mps 761 mmHg 88%
    14:00 +28°C° 1.2 mm 4 mps 760 mmHg 89%
    15:00 +28°C° 1.2 mm 4 mps 759 mmHg 91%
    16:00 +27°C° 0.3 mm 4 mps 760 mmHg 93%
    17:00 +26°C° 0.3 mm 4 mps 760 mmHg 95%
    18:00 +25°C° 0.3 mm 4 mps 760 mmHg 98%
    19:00 +25°C° 0.3 mm 4 mps 760 mmHg 98%
    20:00 +25°C° 0.3 mm 5 mps 761 mmHg 98%
    21:00 +25°C° 0.3 mm 5 mps 761 mmHg 98%
    22:00 +25°C° 0.7 mm 5 mps 761 mmHg 98%
    23:00 +25°C° 0.7 mm 4 mps 761 mmHg 98%

    17 December, Sunday

    Time Temperature Precipitation Wind Pressure Humidity
    00:00 +25°C° 0.7 mm 4 mps 761 mmHg 98%
    01:00 +25°C° 0.1 mm 4 mps 761 mmHg 98%
    02:00 +25°C° 0.1 mm 4 mps 760 mmHg 98%
    03:00 +25°C° 0.1 mm 4 mps 760 mmHg 98%
    04:00 +25°C° 0.4 mm 4 mps 760 mmHg 98%
    05:00 +25°C° 0.4 mm 4 mps 760 mmHg 98%
    06:00 +25°C° 0.4 mm 5 mps 761 mmHg 98%
    07:00 +26°C° 1 mm 5 mps 761 mmHg 96%
    08:00 +27°C° 1 mm 5 mps 762 mmHg 95%
    09:00 +28°C° 1 mm 6 mps 762 mmHg 93%
    10:00 +28°C° 0.4 mm 6 mps 762 mmHg 89%
    11:00 +29°C° 0.4 mm 6 mps 761 mmHg 85%
    12:00 +30°C° 0.4 mm 5 mps 761 mmHg 81%
    13:00 +30°C° 0.3 mm 5 mps 760 mmHg 79%
    14:00 +30°C° 0.3 mm 5 mps 759 mmHg 78%
    15:00 +30°C° 0.3 mm 5 mps 759 mmHg 77%
    16:00 +28°C° 0.2 mm 5 mps 759 mmHg 83%
    17:00 +27°C° 0.2 mm 4 mps 759 mmHg 90%
    18:00 +26°C° 0.2 mm 4 mps 760 mmHg 96%
    19:00 +26°C° 0.1 mm 4 mps 760 mmHg 97%
    20:00 +26°C° 0.1 mm 5 mps 760 mmHg 98%
    21:00 +25°C° 0.1 mm 5 mps 761 mmHg 98%
    22:00 +25°C° 0.1 mm 5 mps 761 mmHg 98%
    23:00 +26°C° 0.1 mm 5 mps 760 mmHg 98%

    18 December, Monday

    Time Temperature Precipitation Wind Pressure Humidity
    00:00 +26°C° 0.1 mm 5 mps 760 mmHg 98%
    01:00 +25°C° 0.1 mm 5 mps 760 mmHg 98%
    02:00 +25°C° 0.1 mm 5 mps 760 mmHg 98%
    03:00 +25°C° 0.1 mm 5 mps 759 mmHg 98%
    04:00 +25°C° 0.2 mm 5 mps 760 mmHg 98%
    05:00 +25°C° 0.2 mm 5 mps 760 mmHg 98%
    06:00 +25°C° 0.2 mm 5 mps 760 mmHg 98%
    07:00 +26°C° 1.1 mm 5 mps 761 mmHg 96%
    08:00 +27°C° 1.1 mm 6 mps 761 mmHg 94%
    09:00 +28°C° 1.1 mm 6 mps 762 mmHg 92%
    10:00 +28°C° 1.6 mm 6 mps 761 mmHg 92%
    11:00 +28°C° 1.6 mm 6 mps 761 mmHg 92%
    12:00 +28°C° 1.6 mm 6 mps 761 mmHg 93%
    13:00 +29°C° 0.3 mm 6 mps 760 mmHg 87%
    14:00 +29°C° 0.3 mm 6 mps 760 mmHg 82%
    15:00 +30°C° 0.3 mm 5 mps 759 mmHg 77%
    16:00 +29°C° 0 mm 5 mps 759 mmHg 82%
    17:00 +27°C° 0 mm 5 mps 759 mmHg 86%
    18:00 +26°C° 0 mm 4 mps 760 mmHg 91%
    19:00 +26°C° 0 mm 4 mps 760 mmHg 93%
    20:00 +26°C° 0 mm 4 mps 760 mmHg 95%
    21:00 +26°C° 0 mm 4 mps 761 mmHg 97%
    22:00 +26°C° 0 mm 4 mps 761 mmHg 97%
    23:00 +25°C° 0 mm 5 mps 760 mmHg 98%

    19 December, Tuesday

    Time Temperature Precipitation Wind Pressure Humidity
    00:00 +25°C° 0 mm 5 mps 760 mmHg 98%
    01:00 +25°C° 0 mm 4 mps 760 mmHg 98%
    02:00 +25°C° 0 mm 4 mps 760 mmHg 98%
    03:00 +25°C° 0 mm 4 mps 760 mmHg 98%
    04:00 +25°C° 0 mm 4 mps 760 mmHg 98%
    05:00 +25°C° 0 mm 4 mps 760 mmHg 98%
    06:00 +25°C° 0 mm 4 mps 760 mmHg 98%
    07:00 +26°C° 0.4 mm 4 mps 761 mmHg 95%
    08:00 +27°C° 0.4 mm 4 mps 762 mmHg 92%
    09:00 +28°C° 0.4 mm 5 mps 762 mmHg 89%
    10:00 +28°C° 0.6 mm 5 mps 762 mmHg 88%
    11:00 +29°C° 0.6 mm 5 mps 761 mmHg 88%
    12:00 +29°C° 0.6 mm 5 mps 761 mmHg 88%
    13:00 +29°C° 0.7 mm 5 mps 760 mmHg 87%
    14:00 +29°C° 0.7 mm 5 mps 760 mmHg 86%
    15:00 +29°C° 0.7 mm 5 mps 760 mmHg 86%
    16:00 +28°C° 0.8 mm 5 mps 760 mmHg 89%
    17:00 +27°C° 0.8 mm 4 mps 760 mmHg 93%
    18:00 +26°C° 0.8 mm 4 mps 761 mmHg 96%
    19:00 +26°C° 0.8 mm 4 mps 761 mmHg 97%
    20:00 +26°C° 0.8 mm 4 mps 762 mmHg 98%
    21:00 +25°C° 0.8 mm 4 mps 762 mmHg 98%
    22:00 +25°C° 1.2 mm 5 mps 762 mmHg 99%
    23:00 +25°C° 1.2 mm 5 mps 762 mmHg 99%
    Show more